Regional Weather Roundup
Issued by NWS

Home | Current Version | Previous Version | Graphics & Text | Print | Product List | Glossary On
Versions: 1 2 3 4 5 6 7 8 9 10 11 12 13 14 15 16 17 18 19 20 21 22 23 24 25 26 27 28 29 30 31 32 33 34 35 36 37 38 39 40 41 42 43 44 45 46 47 48 49 50
941
ASUS45 KTFX 171010
RWRMT
MONTANA REGIONAL WEATHER ROUNDUP
NATIONAL WEATHER SERVICE GREAT FALLS MT
300 AM MST SAT FEB 17 2018

NOTE: "FAIR" INDICATES FEW OR NO CLOUDS BELOW 12000 FEET WITH NO
SIGNIFICANT WEATHER AND/OR OBSTRUCTIONS TO VISIBILITY.

MTZ001>007-043-171100-
WEST OF THE DIVIDE

CITY           SKY/WX    TMP DP  RH WIND       PRES   REMARKS
KALISPELL      FAIR      16  14  92 W3        29.97R
MISSOULA       CLOUDY    25  21  85 NW5       30.00S
BUTTE          CLOUDY    19  16  88 CALM      29.93R
MULLAN PASS    CLOUDY    17  15  92 CALM      29.89S
ANACONDA         N/A     27  18  69 W9        29.94S WCI  17
DEER LODGE       N/A     27  19  74 SE3       29.96S
EUREKA           N/A     19  16  86 MISG      29.97S
HAMILTON         N/A     30  27  86 MISG        N/A
PLAINS           N/A     25  16  68 CALM      30.02R
RONAN            N/A     28  21  74 SE6       30.00S WCI  22
$$

MTZ008-052>055-171100-
SOUTHWEST MONTANA

CITY           SKY/WX    TMP DP  RH WIND       PRES   REMARKS
BOZEMAN        FAIR      26  15  63 W7        29.95S WCI  18
DILLON         CLOUDY    18  18 100 S6        29.94F WCI  10
ENNIS          CLOUDY    23  21  93 S9        30.00F WCI  13
W YELLOWSTONE  MOCLDY    19  14  79 SW16G23   29.92S FOG     WCI   5
THREE FORKS      N/A     26  17  68 W2        29.95S
TWIN BRIDGES     N/A     24  17  74 CALM      29.96R
$$

MTZ009-010-012-014-046-048-049-054-171100-
EAST SLOPES AND CENTRAL MONTANA

CITY           SKY/WX    TMP DP  RH WIND       PRES   REMARKS
CUT BANK       FAIR      11   8  88 SW5       29.95F
GREAT FALLS    LGT SNOW  16  13  88 NE6       30.01S FOG     WCI   7
MALMSTROM AFB  FLURRIES  16  15  95 N5        30.02S
HELENA         CLOUDY    23  18  81 CALM      29.96R
AUGUSTA        LGT SNOW  15  15  98 NE6       29.95S WCI   7
BOWMANS CRNR   LGT SNOW  15  14  95 NE8       29.94F WCI   4
CONRAD           N/A     14  11  88 NW5       30.01
FAIRFIELD      SNOWSHWR  17  14  90 CALM      29.98S
POWER          FLURRIES  12  10  91 CALM      29.98S
RAYNESFORD     LGT SNOW  16  14  90 W12       29.97R WCI   3
ULM            LGT SNOW  17  16  95 CALM      30.01S
WHITE SULPHUR    N/A     21  16  79 NW8G14    29.87S WCI  12
$$

MTZ011-013-016-021-045-047-050-051-171100-
NORTH CENTRAL MONTANA

CITY           SKY/WX    TMP DP  RH WIND       PRES   REMARKS
HAVRE          CLOUDY    16  11  80 W9        30.03R WCI   4
LEWISTOWN      LGT SNOW  17  16  95 NW13      29.93R VSB 1   WCI   4
N BAR RANCH    LGT SNOW  18  14  86 SE5       29.91R
CHINOOK          N/A     18  10  73 W13       30.03R WCI   4
GEYSER         LGT SNOW  16  14  90 CALM      29.96R
STANFORD       LGT SNOW  15  13  93 NW13      29.95R WCI   1
WINIFRED       SNOWSHWR  17  14  87 NW16      29.95  WCI   2
$$

MTZ017>020-022>027-061-062-171100-
NORTHEAST MONTANA

CITY           SKY/WX    TMP DP  RH WIND       PRES   REMARKS
GLASGOW        FAIR       8   4  83 W12       29.95R WCI  -7
GLENDIVE       FAIR      14  10  84 N12       29.90R WCI   0
JORDAN           N/A     10   6  84 W9        29.95R WCI  -3
MALTA          CLOUDY     7   3  85 NW5G13    29.99R
SIDNEY         FAIR      14   9  80 NW13      29.91R WCI   0
WOLF POINT     FAIR      10   5  80 W12       29.95R WCI  -5
PLENTYWOOD       N/A     16  12  86 NW13      29.85R WCI   2
POPLAR           N/A     10   5  79 W9        29.93R WCI  -2
SCOBEY           N/A     14   7  74 W13       29.86R WCI   0
$$

MTZ028>42-056>058-171100-
SOUTHCENTRAL AND SOUTHEAST MONTANA

CITY           SKY/WX    TMP DP  RH WIND       PRES   REMARKS
BAKER          LGT SNOW  25  24  96 NW15      29.84R FOG     WCI  13
BILLINGS       CLOUDY    25  21  85 N7        29.93R WCI  17
LIVINGSTON     CLOUDY    29  18  63 SW22G29   29.91R WCI  15
MILES CITY     FAIR      21  18  88 NW9G21    29.93R WCI  11
BIG TIMBER     MOCLDY    27  18  69 W20       29.92S WCI  13
EKALAKA          N/A     23  19  85 W8        29.82R WCI  14
FORSYTH          N/A     21  19  93 W7        29.96R WCI  13
HARLOWTON      MOCLDY    18  13  81 N22G28    29.89S WCI   1
LAUREL           N/A     25  19  80 NW10      29.95R WCI  15
$$

REGIONAL REPORTS...DAKOTAS

CITY           SKY/WX    TMP DP  RH WIND       PRES   REMARKS
WILLISTON      FAIR      12   7  80 W9        29.87R WCI   0
MINOT          FAIR      16  10  77 W14       29.80R WCI   2
DICKINSON      CLOUDY    22  20  92 W13       29.78S WCI  10
BEACH          CLOUDY    19  18  93 NW15      29.87R WCI   5
CROSBY         CLOUDY    14  12  92 NW13      29.84S WCI   0
TIOGA          FAIR       5   5 100 W5        29.82S
WATFORD CITY   CLOUDY    16  12  86 W6        29.86R WCI   7
BISMARCK       FAIR      15  14  95 W5        29.83R
GRAND FORKS    MOCLDY    14  10  84 W5        29.77S
FARGO          FAIR      19  14  81 S8        29.81R WCI   9
BUFFALO SD       N/A     26  23  88 NW15      29.75R WCI  14
RAPID CITY     MOCLDY    19  12  74 W6        29.82F WCI  11
$$

REGIONAL REPORTS...WYOMING/IDAHO/WASHINGTON

CITY           SKY/WX    TMP DP  RH WIND       PRES   REMARKS
GILLETTE       LGT SNOW  26  22  84 NW15      29.88R FOG     WCI  14
SHERIDAN       LGT SNOW  26  24  92 NW12      29.90S FOG     WCI  16
BUFFALO WY     LGT SNOW  25  23  92 N20G28    29.87S FOG     WCI  11
CODY           FAIR      21  14  74 CALM      29.91R
YELLOWSTONE LA   N/A     14  10  84 VRB6      29.93R WCI   5
IDAHO FALLS    CLOUDY    26  20  77 S14       30.09R WCI  14
SALMON         CLOUDY    28  23  81 CALM      30.02S
BOISE          FAIR      32  26  78 E7        30.16F WCI  26
SPOKANE        CLOUDY    31  30  96 SE5       30.04F
$$

REGIONAL REPORTS...ALBERTA

CITY           SKY/WX    TMP DP  RH WIND       PRES   REMARKS
CALGARY        MOCLDY    12   5  73 NE2       29.95S
CARDSTON         N/A     10   7  85 E2          N/A
EDMONTON       CLEAR      3  -6  66 W12       29.98R WCI -13
FORT MCMURRAY  FLURRIES   9   0  66 W13       29.85R WCI  -7
HIGH LEVEL     FLURRIES  12   3  67 NW10G21   29.98  WCI  -1
LETHBRIDGE     CLOUDY    16  12  86 E3        29.99S
LLOYDMINSTER   MOCLDY     1  -4  78 W15       29.87R WCI -18
MEDICINE HAT   PTCLDY     7   3  85 W6        30.03R WCI  -3
MILK RIVER       N/A     12  10  92 W2          N/A
PEACE RIVER    CLEAR      9  -2  61 NW12      30.02F WCI  -6
PINCHER CREEK  FLURRIES  14  12  92 SE7       29.91F WCI   4
WATERTON GATE    N/A     14  10  85 SW3         N/A
$$

REGIONAL REPORTS...SASKATCHEWAN

CITY           SKY/WX    TMP DP  RH WIND       PRES   REMARKS
CORONACH         N/A     14  10  85 NW16        N/A  WCI  -2
CYPRESS HILLS    N/A      5   1  85 NW9G17      N/A  WCI  -9
ESTEVAN        MOCLDY     9   5  85 NW12      29.82R WCI  -6
MOOSE JAW        N/A     16  10  79 W13G18      N/A  WCI   2
PRINCE ALBERT  CLEAR      0  -6  78 NW7       29.84R WCI -13
REGINA         MOCLDY     9   3  78 NW12      29.84R WCI  -6
ROCKGLEN         N/A     12   7  79 NW16G23     N/A  WCI  -4
SASKATOON      CLEAR      3  -2  78 W14       29.87R WCI -15
SWIFT CURRENT  CLEAR      3   0  85 W14       29.88S WCI -15
VAL MARIE        N/A      3   0  85 NW16        N/A  WCI -16
$$




USA.gov is the U.S. government's official web portal to all federal, state and local government web resources and services.